Location: Caltech
(34.1382°N, 118.1253°W)
Time: 17:48:24
(UTC-07:00)

AO-7 - Visible Passes

Search period start: 20 August 2017 00:00
Search period end: 30 August 2017 00:00
Orbit: 1440 x 1458 km, 101.6° (Epoch: 20 August)

Date Brightness Start Highest point End Pass type
(mag) Time Alt. Az. Time Alt. Az. Time Alt. Az.
20 Aug ? 02:56:54 10° NE 03:01:54 17° E 03:06:50 10° SE visible
20 Aug ? 04:47:00 10° NNE 04:55:21 82° WNW 05:03:38 10° SSW visible
21 Aug ? 03:47:35 10° NNE 03:55:21 42° E 04:03:02 10° S visible
21 Aug ? 05:40:27 10° N 05:47:55 39° WNW 05:55:23 10° SW visible
22 Aug ? 02:50:35 10° ENE 02:54:49 15° E 02:59:00 10° ESE visible
22 Aug ? 04:40:01 10° NNE 04:48:24 90° WNW 04:56:42 10° SSW visible
23 Aug ? 03:40:46 10° NE 03:48:20 38° E 03:55:49 10° SSE visible
23 Aug ? 05:33:22 10° N 05:41:01 43° WNW 05:48:39 10° SW visible
24 Aug ? 02:44:30 10° ENE 02:47:43 13° E 02:50:55 10° ESE visible
24 Aug ? 04:33:04 10° NNE 04:41:25 83° ESE 04:49:43 10° SSW visible
25 Aug ? 03:33:58 10° NE 03:41:18 34° E 03:48:33 10° SSE visible
25 Aug ? 05:26:18 10° N 05:34:07 47° WNW 05:41:54 10° SW visible
26 Aug ? 02:39:08 10° E 02:40:38 11° E 02:42:07 10° E visible
26 Aug ? 04:26:07 10° NNE 04:34:27 75° ESE 04:42:43 10° S visible
27 Aug ? 03:27:13 10° NE 03:34:16 30° E 03:41:15 10° SSE visible
27 Aug ? 05:19:14 10° N 05:27:12 52° WNW 05:35:06 10° SW visible
28 Aug ? 04:19:10 10° NNE 04:27:28 68° ESE 04:35:42 10° S visible
29 Aug ? 03:20:30 10° NE 03:27:13 27° E 03:33:53 10° SSE visible
29 Aug ? 05:12:11 10° N 05:20:16 58° WNW 05:28:18 10° SW visible
